Location: Unspecified
(0.0000°N, 0.0000°E)
Time: 05:13:12
(UTC+02:00)

ARIANE 5 R/B - Visible Passes

Search period start: 30 September 2016 00:00
Search period end: 10 October 2016 00:00
Orbit: 573 x 35644 km, 6.9° (Epoch: 28 September)

Date Brightness Start Highest point End Pass type
(mag) Time Alt. Az. Time Alt. Az. Time Alt. Az.
30 Sep 7.8 15:52:13 10° WNW 23:58:50 76° ESE 01:50:59 10° E visible
01 Oct 9.7 17:44:37 10° E 21:00:26 28° E 21:38:53 26° E visible
02 Oct 8.1 21:17:33 10° W 23:01:51 50° W 07:08:04 10° E visible
03 Oct 8.2 18:09:23 10° W 22:03:05 90° N 04:10:48 10° E visible
04 Oct 7.4 15:10:54 10° WNW 23:17:34 67° ESE 01:07:38 10° E visible
05 Oct 10.4 18:09:35 10° E 20:19:28 20° E 21:08:45 16° E visible
06 Oct 11.1 00:38:59 10° W 01:16:52 12° W 02:05:59 10° W visible
06 Oct 7.9 20:32:36 10° W 22:19:28 59° W 06:26:51 10° E visible
07 Oct 8.2 17:27:23 10° W 22:26:58 88° S 03:29:00 10° E visible
08 Oct 6.9 14:29:37 10° WNW 22:35:28 58° E 00:23:36 10° E visible
09 Oct 10.4 18:52:23 10° E 19:38:53 12° E 20:15:15 10° E visible
